Meteo Giornale » Osservazioni meteo Stati Uniti (USA) » Dallas-Fort Worth
ore: 12:53 - Osservazioni Meteo Dallas-Fort Worth
Lat. 32° 53' N Lon. 97° 1' W Alt. 183 metri s.l.m.
36 °C
Nuvoloso
Temp. 24 Ore
27 °C
38 °C
Nord
0 Km/h
Dew point 19 °C
Umidità 36 %
Visibilità 10 Km
Il sole sorge alle ore 07:02
Il sole tramonta alle ore 19:53
| Data e Ora | Cielo e Fenomeni | T °C | DP °C | Um. % | Pres. hPa | Vis. km | Vento km/h | |
|---|---|---|---|---|---|---|---|---|
| Oggi h: 12:53 | Nuvoloso | 36 | 19 | 36 | 1016 | 10 | N 0 | |
| Oggi h: 11:53 | Nuvoloso | 34 | 19 | 41 | 1017 | 10 | S/SO 9.3 | |
| Oggi h: 10:53 | Poco Nuvoloso | 33 | 20 | 46 | 1017 | 10 | N 11.1 | |
| Oggi h: 09:53 | Poco Nuvoloso | 31 | 21 | 55 | 1017 | 10 | N 0 | |
| Oggi h: 08:53 | Poco Nuvoloso | 29 | 21 | 62 | 1017 | 10 | S 7.4 | |
| Oggi h: 07:53 | Nuvoloso | 27 | 20 | 65 | 1016 | 10 | SE 7.4 | |
| Oggi h: 06:53 | Poco Nuvoloso | 27 | 20 | 65 | 1016 | 10 | S 9.3 | |
| Oggi h: 05:53 | Poco Nuvoloso | 28 | 20 | 61 | 1015 | 10 | S 9.3 | |
| Oggi h: 04:53 | Poco Nuvoloso | 29 | 20 | 58 | 1015 | 10 | S/SO 13 | |
| Oggi h: 03:53 | Poco Nuvoloso | 29 | 19 | 54 | 1015 | 10 | S/SO 16.7 | |
| Oggi h: 02:53 | Poco Nuvoloso | 30 | 18 | 48 | 1015 | 10 | S 18.5 | |
| Oggi h: 01:53 | Nuvoloso | 31 | 17 | 43 | 1015 | 10 | S/SE 14.8 | |
| Oggi h: 00:53 | Poco Nuvoloso | 29 | 16 | 45 | 1014 | 10 | E/SE 11.1 | |
| Ieri h: 23:53 | Sereno | 31 | 15 | 37 | 1014 | 10 | N 5.5 | |
| Ieri h: 22:53 | Sereno | 31 | 15 | 37 | 1014 | 10 | S/SE 7.4 | |
| Ieri h: 21:53 | Sereno | 32 | 14 | 33 | 1014 | 10 | S/SE 11.1 | |
| Ieri h: 20:53 | Sereno | 33 | 14 | 31 | 1013 | 10 | SE 9.3 | |
| Ieri h: 19:53 | Poco Nuvoloso | 35 | 13 | 26 | 1012 | 10 | SE 14.8 | |
| Ieri h: 18:53 | Poco Nuvoloso | 37 | 14 | 25 | 1012 | 10 | SE 16.7 | |
| Ieri h: 17:53 | Poco Nuvoloso | 37 | 14 | 25 | 1012 | 10 | S/SE 16.7 | |
| Ieri h: 16:53 | Nuvoloso | 37 | 15 | 27 | 1013 | 10 | SE 22.2 | |
| Ieri h: 15:53 | Nuvoloso | 38 | 14 | 24 | 1014 | 10 | SE 20.3 | |
| Ieri h: 14:53 | Nuvoloso | 38 | 14 | 24 | 1015 | 10 | S 16.7 | |
| Ieri h: 13:53 | Nuvoloso | 38 | 16 | 27 | 1015 | 10 | S/SE 20.3 | |



